Precipitable_Water
0.84 0.87 0.91 0.85 0.99 1.08 1.11 1.12 1.13 1.17 1.17 1.14 1.12 1.09 1.03 1.01 1.04 1.07 1.08 1.08 1.10 1.13 1.14 1.12 1.08 1.03 1.01 1.06 1.08 1.12 1.14 1.17 1.18 1.20 1.24 1.27 1.30 1.34 1.35 1.26 1.21 1.25 1.31
1.05 1.08 0.98 0.84 0.81 0.88 1.00 1.09 1.10 1.17 1.19 1.16 1.12 1.13 1.11 1.06 1.03 1.05 1.09 1.09 1.11 1.14 1.14 1.12 1.10 1.04 1.00 1.03 1.08 1.18 1.20 1.18 1.21 1.25 1.25 1.29 1.37 1.40 1.41 1.35 1.29 1.31 1.31
1.17 1.19 1.10 0.88 0.84 0.82 0.82 0.93 1.04 1.12 1.18 1.19 1.15 1.13 1.15 1.16 1.08 1.07 1.09 1.12 1.12 1.13 1.15 1.15 1.11 1.08 1.02 1.01 1.05 1.21 1.34 1.42 1.40 1.41 1.39 1.41 1.42 1.41 1.41 1.34 1.32 1.32 1.30
1.27 1.19 1.07 0.93 0.90 0.87 0.85 0.90 0.99 1.07 1.16 1.15 1.17 1.15 1.17 1.18 1.14 1.12 1.14 1.16 1.16 1.15 1.16 1.17 1.14 1.09 1.06 1.04 1.02 1.10 1.25 1.35 1.43 1.40 1.44 1.43 1.43 1.44 1.34 1.29 1.30 1.32 1.35
1.21 1.15 1.01 0.97 0.96 0.94 0.93 0.95 1.01 1.07 1.14 1.15 1.16 1.18 1.18 1.19 1.16 1.15 1.17 1.19 1.22 1.19 1.20 1.22 1.18 1.15 1.11 1.08 1.07 1.03 1.15 1.30 1.33 1.41 1.38 1.40 1.38 1.41 1.37 1.30 1.32 1.34 1.35
1.14 1.11 1.04 0.98 0.97 0.97 1.00 1.02 1.06 1.09 1.15 1.15 1.18 1.19 1.20 1.21 1.19 1.18 1.18 1.22 1.26 1.24 1.24 1.27 1.27 1.21 1.18 1.15 1.14 1.12 1.14 1.31 1.30 1.36 1.31 1.37 1.39 1.32 1.32 1.33 1.31 1.35 1.40
1.13 1.15 1.09 0.98 0.97 0.99 1.05 1.09 1.13 1.14 1.15 1.19 1.21 1.24 1.25 1.25 1.24 1.22 1.22 1.24 1.26 1.27 1.28 1.30 1.33 1.27 1.23 1.22 1.20 1.18 1.20 1.32 1.35 1.37 1.45 1.46 1.43 1.43 1.35 1.19 1.32 1.35 1.38
1.16 1.14 1.09 1.07 1.05 1.05 1.12 1.17 1.20 1.20 1.21 1.25 1.25 1.28 1.30 1.30 1.28 1.25 1.24 1.25 1.25 1.25 1.26 1.27 1.31 1.30 1.27 1.26 1.26 1.25 1.21 1.20 1.29 1.29 1.35 1.44 1.52 1.56 1.55 1.40 1.27 1.33 1.36
1.27 1.17 1.12 1.15 1.15 1.14 1.17 1.17 1.19 1.24 1.29 1.29 1.29 1.32 1.33 1.31 1.28 1.27 1.26 1.27 1.29 1.29 1.28 1.28 1.27 1.31 1.33 1.33 1.35 1.38 1.36 1.33 1.23 1.29 1.25 1.34 1.44 1.56 1.59 1.56 1.48 1.35 1.28
1.34 1.34 1.18 1.18 1.20 1.19 1.21 1.22 1.24 1.27 1.29 1.32 1.33 1.34 1.36 1.31 1.30 1.31 1.30 1.29 1.29 1.30 1.31 1.31 1.31 1.33 1.35 1.38 1.39 1.38 1.38 1.37 1.33 1.32 1.31 1.42 1.58 1.56 1.49 1.51 1.58 1.59 1.44
1.24 1.26 1.26 1.21 1.22 1.24 1.27 1.31 1.30 1.30 1.33 1.37 1.39 1.40 1.35 1.31 1.31 1.33 1.32 1.31 1.32 1.33 1.33 1.36 1.36 1.37 1.38 1.38 1.38 1.36 1.36 1.34 1.33 1.33 1.38 1.44 1.57 1.61 1.57 1.62 1.58 1.60 1.61
1.10 1.14 1.22 1.24 1.25 1.28 1.30 1.34 1.33 1.34 1.38 1.41 1.37 1.32 1.31 1.30 1.27 1.25 1.29 1.31 1.35 1.39 1.42 1.42 1.43 1.42 1.43 1.43 1.42 1.42 1.40 1.40 1.39 1.39 1.42 1.46 1.53 1.62 1.72 1.68 1.66 1.62 1.63
1.12 1.16 1.19 1.24 1.27 1.27 1.27 1.33 1.34 1.35 1.34 1.30 1.24 1.24 1.18 1.13 1.12 1.13 1.16 1.19 1.26 1.34 1.36 1.41 1.43 1.44 1.43 1.44 1.46 1.46 1.43 1.38 1.34 1.36 1.40 1.44 1.50 1.59 1.73 1.73 1.66 1.53 1.53
1.12 1.20 1.24 1.28 1.27 1.28 1.30 1.28 1.30 1.30 1.27 1.21 1.16 1.04 0.95 0.91 0.90 0.95 1.01 1.07 1.19 1.24 1.22 1.28 1.33 1.37 1.36 1.35 1.39 1.41 1.37 1.39 1.33 1.33 1.31 1.34 1.37 1.41 1.47 1.39 1.37 1.32 1.33
1.13 1.17 1.23 1.31 1.31 1.34 1.31 1.31 1.27 1.22 1.14 1.06 0.99 0.95 0.91 0.84 0.79 0.86 0.92 0.98 1.03 1.10 1.14 1.20 1.18 1.20 1.26 1.27 1.31 1.35 1.31 1.28 1.27 1.32 1.34 1.36 1.35 1.31 1.32 1.30 1.28 1.28 1.22
1.21 1.22 1.30 1.31 1.35 1.35 1.31 1.25 1.19 1.18 1.12 0.99 0.92 0.87 0.89 0.85 0.76 0.73 0.82 0.89 0.94 1.00 1.03 1.05 1.10 1.14 1.19 1.24 1.19 1.21 1.21 1.23 1.22 1.25 1.22 1.25 1.26 1.24 1.24 1.25 1.17 1.16 1.13
1.14 1.24 1.32 1.34 1.34 1.25 1.23 1.20 1.17 1.16 1.09 0.99 0.92 0.86 0.84 0.86 0.79 0.76 0.76 0.80 0.86 0.87 0.91 0.95 0.92 1.03 1.09 1.14 1.08 1.05 1.04 1.11 1.06 1.08 1.08 1.08 1.09 1.08 1.06 1.04 1.02 0.97 0.87
1.13 1.13 1.25 1.39 1.29 1.22 1.15 1.15 1.11 1.07 1.04 0.97 0.90 0.81 0.83 0.83 0.77 0.74 0.73 0.73 0.78 0.78 0.80 0.79 0.84 0.80 0.81 0.81 0.81 0.87 0.88 0.90 0.95 0.95 0.95 0.94 0.93 0.93 0.93 0.86 0.78 0.74 0.72
1.15 1.15 1.20 1.26 1.26 1.22 1.15 1.10 1.06 1.02 0.97 0.90 0.82 0.77 0.77 0.78 0.78 0.74 0.73 0.75 0.80 0.77 0.75 0.73 0.72 0.75 0.73 0.75 0.75 0.74 0.80 0.87 0.88 0.87 0.84 0.84 0.83 0.81 0.78 0.73 0.66 0.62 0.59
1.12 1.19 1.18 1.17 1.18 1.20 1.15 1.05 1.00 0.94 0.90 0.88 0.82 0.77 0.75 0.74 0.73 0.72 0.73 0.76 0.78 0.73 0.69 0.68 0.65 0.65 0.61 0.60 0.60 0.60 0.68 0.78 0.81 0.81 0.79 0.78 0.79 0.74 0.67 0.60 0.58 0.58 0.57
1.09 1.14 1.11 1.09 1.12 1.11 1.08 0.97 0.91 0.85 0.86 0.85 0.85 0.80 0.73 0.71 0.70 0.70 0.69 0.70 0.70 0.64 0.62 0.59 0.58 0.54 0.51 0.51 0.44 0.54 0.68 0.76 0.76 0.75 0.75 0.72 0.71 0.69 0.66 0.61 0.57 0.53 0.51
1.01 1.10 1.15 1.17 1.19 1.19 1.12 1.00 0.94 0.89 0.88 0.87 0.86 0.81 0.76 0.71 0.70 0.69 0.66 0.65 0.65 0.61 0.59 0.54 0.51 0.46 0.44 0.45 0.41 0.51 0.51 0.63 0.67 0.66 0.69 0.69 0.68 0.66 0.61 0.59 0.55 0.51 0.50
1.05 1.09 1.17 1.22 1.26 1.23 1.17 1.07 0.99 0.91 0.85 0.80 0.79 0.78 0.76 0.74 0.72 0.69 0.66 0.64 0.62 0.60 0.53 0.50 0.51 0.47 0.40 0.45 0.53 0.50 0.48 0.46 0.55 0.62 0.66 0.67 0.66 0.63 0.60 0.56 0.53 0.50 0.48
1.08 1.21 1.24 1.28 1.27 1.23 1.16 1.09 0.98 0.88 0.79 0.78 0.76 0.75 0.75 0.77 0.75 0.73 0.69 0.65 0.61 0.58 0.54 0.52 0.54 0.53 0.50 0.41 0.50 0.53 0.58 0.59 0.50 0.45 0.59 0.61 0.63 0.58 0.55 0.52 0.48 0.47 0.46
1.08 1.15 1.24 1.27 1.24 1.21 1.16 1.09 0.98 0.87 0.83 0.82 0.81 0.79 0.78 0.77 0.75 0.73 0.69 0.64 0.61 0.60 0.57 0.55 0.54 0.56 0.55 0.49 0.47 0.50 0.51 0.56 0.57 0.48 0.43 0.51 0.57 0.56 0.55 0.51 0.48 0.46 0.44
1.15 1.18 1.20 1.17 1.16 1.17 1.10 1.02 0.93 0.84 0.81 0.79 0.81 0.81 0.81 0.80 0.76 0.73 0.71 0.67 0.64 0.62 0.58 0.57 0.57 0.57 0.55 0.54 0.53 0.50 0.46 0.45 0.48 0.50 0.49 0.50 0.50 0.52 0.51 0.47 0.44 0.40 0.37
Wind_Speed
4 3 2 2 3 3 3 3 3 2 2 2 2 2 3 3 3 3 3 3 3 3 4 4 4 5 5 6 6 6 6 7 7 7 7 7 6 6 6 6 6 7 7
4 4 3 3 3 3 4 4 4 3 3 2 2 1 1 1 1 1 2 2 2 2 3 3 3 3 4 5 5 6 6 6 7 7 6 6 6 5 5 5 6 6 6
4 3 3 3 3 4 4 5 5 5 4 4 3 2 2 1 1 1 2 2 2 2 2 2 2 2 2 3 4 4 5 6 6 6 6 5 5 6 5 5 5 5 5
5 5 5 4 4 4 5 5 5 6 5 5 5 4 4 3 2 2 3 3 3 3 2 2 2 1 1 1 1 2 2 3 3 3 3 3 3 4 4 3 3 3 3
6 6 6 6 5 5 5 6 6 6 6 6 6 6 5 4 4 4 4 4 4 4 3 3 3 3 2 2 1 1 1 1 0 0 0 0 1 1 2 2 2 2 2
7 7 7 7 7 7 7 7 7 7 7 7 7 7 6 6 6 6 6 6 5 5 5 5 4 4 4 4 4 3 3 3 2 2 3 3 3 2 1 0 0 1 1
8 9 9 9 9 8 8 8 8 8 8 8 8 8 8 7 7 7 7 7 7 7 7 7 6 6 6 6 6 6 5 5 4 4 3 4 5 4 3 2 1 1 1
9 10 10 10 10 10 10 9 9 9 9 9 9 9 9 9 8 8 8 8 8 8 8 8 8 8 8 7 7 7 8 7 7 6 6 5 7 6 5 4 3 3 3
11 11 12 12 12 12 11 11 10 10 10 10 10 10 10 10 10 10 10 10 11 11 11 11 10 10 10 10 9 9 9 9 9 9 8 7 8 8 7 6 5 5 5
13 13 14 14 14 13 13 12 12 12 11 11 11 11 11 12 12 12 12 13 13 14 14 14 14 13 13 12 12 12 11 11 11 11 11 10 10 10 10 9 8 8 8
16 16 16 16 15 15 15 14 13 13 13 12 13 13 13 13 14 14 15 15 16 16 17 17 17 16 16 16 15 15 14 14 14 13 13 13 12 12 11 11 10 10 10
18 17 17 17 17 16 16 15 15 14 14 14 14 14 14 14 15 16 16 17 17 18 19 19 19 19 18 18 18 17 17 16 15 14 15 14 14 13 14 13 12 12 12
20 19 19 19 18 18 17 17 16 15 15 15 15 15 15 16 16 17 18 18 19 19 20 20 20 20 19 19 18 18 17 16 15 14 13 13 14 13 12 10 11 11 11
21 21 21 20 20 19 19 18 17 16 16 16 16 16 16 17 18 19 20 20 20 20 20 19 19 19 19 18 17 17 17 16 16 15 14 14 14 14 14 15 14 14 14
23 22 22 22 21 20 19 19 18 17 17 17 17 17 18 18 19 19 20 20 20 20 19 18 18 18 18 18 18 17 17 18 18 18 16 15 15 15 16 16 16 15 15
24 24 24 24 23 22 21 20 20 19 18 18 18 18 19 19 19 19 19 19 19 19 18 18 18 18 18 18 18 18 19 19 19 18 18 17 17 17 17 17 17 16 17
25 24 26 25 24 23 22 21 20 20 19 19 19 20 19 20 19 19 18 18 18 17 17 16 16 16 17 17 17 18 18 18 18 17 17 17 17 17 18 17 18 18 18
24 24 24 26 25 24 23 22 22 21 21 21 21 21 21 20 20 19 18 18 17 17 16 16 17 17 17 17 17 17 17 17 17 17 17 17 17 17 16 16 16 17 18
25 23 22 25 25 24 25 24 24 23 23 23 22 22 22 21 21 19 19 18 17 17 17 17 17 17 17 17 17 17 17 17 16 16 16 16 16 16 15 15 16 17 18
25 23 20 23 25 25 25 26 26 25 25 24 23 23 23 22 21 20 20 19 19 18 17 16 16 16 16 17 17 16 16 16 15 15 15 15 15 16 16 17 17 17 19
25 23 22 21 21 22 24 25 27 27 27 26 25 25 25 24 23 22 22 21 20 18 17 16 15 15 15 16 15 15 14 15 15 16 16 16 16 17 17 18 18 19 21
26 24 24 24 23 22 22 23 24 25 27 27 27 26 26 25 24 24 23 22 21 20 18 17 17 16 16 16 16 16 16 16 16 17 17 18 18 18 19 19 20 21 22
27 25 23 23 23 22 22 21 22 23 24 26 27 28 28 27 26 26 24 23 22 21 20 19 19 18 17 17 18 18 18 19 18 18 18 18 19 20 21 21 22 22 23
25 25 23 23 22 22 22 22 23 24 25 27 28 28 29 30 29 28 27 26 25 24 23 22 21 21 20 20 20 20 21 21 21 21 21 21 21 22 22 22 23 23 24
24 24 24 23 23 23 24 24 24 25 26 27 28 29 30 31 31 30 29 29 28 27 26 25 24 23 23 23 23 23 23 23 23 24 24 24 23 24 24 24 24 25 25
22 22 23 23 25 25 25 26 26 27 26 27 28 29 30 31 32 32 32 31 30 29 29 28 27 26 25 25 25 25 25 25 26 26 25 26 26 25 25 25 25 25 24
Wind_Direction
189 184 189 191 193 194 201 203 195 178 157 138 122 104 81 70 68 63 57 49 42 41 43 44 48 51 54 57 63 68 73 79 85 91 92 91 87 86 83 82 86 84 82
184 197 211 215 212 218 223 221 218 215 206 202 191 173 117 59 54 40 37 30 25 22 26 33 39 43 49 55 65 73 79 85 88 90 90 87 84 80 85 89 88 87 86
202 212 232 230 230 234 235 228 227 227 226 225 224 226 240 288 315 325 338 349 348 348 354 0 9 22 36 53 67 77 83 87 92 83 91 86 81 79 93 88 88 86 85
226 239 240 241 247 246 242 234 230 231 234 235 240 242 249 264 283 294 303 311 316 314 316 316 315 316 323 356 70 91 94 93 88 92 83 84 86 84 84 82 85 87 85
243 247 247 250 251 250 243 238 236 235 236 238 242 246 249 260 272 282 287 293 296 296 296 294 291 287 279 271 249 221 195 158 90 225 140 115 107 103 84 80 88 95 94
248 251 250 253 252 251 246 243 242 239 240 242 243 247 251 258 269 277 280 284 287 286 286 284 281 279 273 268 258 249 245 246 266 276 270 263 226 198 159 159 82 140 100
253 253 255 255 253 252 248 245 245 244 245 245 247 251 255 259 267 274 278 280 282 281 280 279 275 274 271 267 262 258 253 253 262 275 274 250 231 237 238 248 245 211 204
255 256 257 254 253 252 250 248 248 247 246 249 249 253 256 260 266 272 276 277 277 278 278 278 274 271 269 267 264 262 260 258 258 260 267 281 238 235 243 245 249 247 245
260 260 259 256 254 251 250 250 250 249 251 250 252 256 259 263 267 272 276 276 276 275 275 274 273 271 268 266 264 263 263 262 261 259 265 270 245 236 246 251 255 258 257
264 265 261 256 254 253 251 251 251 250 252 253 255 258 261 265 268 273 276 277 277 275 274 272 270 268 266 264 264 264 265 264 264 262 263 261 258 249 252 253 258 262 261
266 265 261 256 254 253 252 252 251 252 253 255 257 260 264 267 270 274 277 279 279 277 274 271 269 266 264 263 264 263 264 265 266 264 262 262 259 255 251 255 261 264 263
265 262 260 256 254 252 251 252 253 254 256 258 259 262 266 270 271 274 278 281 281 279 275 271 268 266 264 262 262 262 262 263 265 264 263 261 256 254 254 258 261 265 266
261 261 259 255 254 252 252 251 253 254 257 260 261 264 268 272 274 276 278 280 282 281 277 273 267 263 261 261 261 259 259 260 263 261 262 258 252 256 255 259 266 269 268
259 259 255 254 253 253 253 252 251 254 257 262 265 267 270 275 277 278 278 278 280 282 278 272 266 262 259 259 258 258 258 257 257 257 260 257 255 255 259 263 269 270 270
260 258 254 251 251 252 252 251 250 252 257 263 266 269 271 276 281 280 279 279 280 282 278 270 266 262 257 256 256 257 258 258 258 256 258 258 257 258 260 262 266 267 271
259 258 253 250 250 249 252 251 251 252 257 263 268 272 274 277 280 283 280 281 281 283 277 269 264 260 258 257 257 258 259 260 258 256 257 257 259 258 260 262 266 268 272
258 256 251 249 248 249 248 250 251 252 256 264 269 273 275 278 279 280 279 282 283 283 277 269 265 260 257 256 256 259 259 259 257 255 256 256 258 260 262 264 267 270 273
255 254 252 245 246 246 247 249 251 253 258 265 270 272 274 277 278 277 277 279 282 282 276 271 264 261 257 256 256 257 259 258 254 255 256 257 258 260 264 266 269 271 274
254 255 250 242 243 245 247 249 254 257 261 266 270 272 274 276 276 274 275 277 279 280 277 271 265 261 259 257 256 256 258 255 253 253 254 256 258 261 264 268 270 273 276
250 250 246 244 245 247 249 250 255 258 261 265 269 270 272 274 273 272 272 275 276 277 273 270 265 262 259 257 256 255 257 250 250 253 255 257 260 263 266 269 271 275 277
248 242 243 244 245 246 249 252 255 258 261 265 268 269 271 271 271 272 272 274 274 273 270 267 263 259 259 257 252 250 252 250 251 253 256 259 260 264 267 271 274 277 279
246 242 243 244 247 252 254 258 260 261 263 264 266 268 269 270 270 270 270 270 271 270 269 266 262 261 261 255 252 249 253 255 257 258 258 260 263 266 271 274 277 279 281
244 245 245 247 248 253 256 259 263 266 267 266 266 267 268 268 269 267 267 267 267 267 266 265 261 259 259 258 250 256 257 259 254 262 262 263 265 269 272 276 280 281 283
248 247 251 250 253 257 259 261 264 268 270 270 269 269 268 267 267 266 265 264 264 264 263 263 262 259 258 256 255 258 261 259 259 261 264 266 268 270 273 276 279 282 284
245 247 250 253 257 262 265 266 268 271 272 272 272 270 270 267 265 264 263 263 262 263 262 261 261 259 258 258 258 258 261 261 262 262 265 265 269 271 273 277 279 282 286
247 249 252 257 262 266 268 268 269 271 272 273 274 272 271 268 265 263 262 262 261 261 261 261 260 260 259 260 260 260 261 262 262 264 267 266 267 271 273 276 278 281 284